RH
12 13 14 14 14 13 12 12 12 15 19 21 22 22 24 24 22 18 17 20 22 23 23 21 19 18 19 19 21 24 20 16 19 21 21 21 22 23 22 23 23 23 21 20 20 18 18 19 19 18 17 15 13 13 13 13 11 10 9 9 9 8 9 8 8 8 8 10 11 16 18 19 26 34 41 38 37 41 45 56 62 66 72 77 81 83 82 71
12 12 13 13 14 13 12 12 13 17 20 20 18 19 23 23 23 19 16 17 18 20 20 19 18 17 18 20 23 24 19 17 19 18 17 18 21 23 22 23 22 22 21 21 23 21 18 16 17 18 14 12 12 12 12 12 10 9 8 9 10 9 9 8 8 8 8 10 12 16 19 20 22 27 34 29 27 30 34 44 48 53 59 64 70 69 64 51
11 12 12 13 13 13 12 12 15 19 19 18 17 16 20 23 22 20 18 15 16 17 18 17 17 17 18 20 24 24 21 19 19 18 17 18 22 22 22 22 21 21 20 21 21 20 18 16 18 17 12 11 11 11 10 10 10 9 8 9 10 9 9 9 9 9 9 10 10 14 16 17 23 28 31 26 24 25 29 35 36 41 47 52 61 59 49 36
12 11 12 13 13 13 12 12 17 19 19 25 25 19 18 21 22 21 19 16 15 15 16 16 16 17 18 21 24 25 24 19 18 21 20 21 23 21 22 22 20 19 19 19 18 17 18 19 19 15 12 10 11 10 9 10 10 8 8 9 9 9 10 10 10 11 10 10 9 11 14 19 28 31 28 23 23 25 34 44 43 45 50 50 55 56 43 30
20 14 12 12 12 12 11 14 19 18 22 31 34 28 21 19 22 22 19 16 15 15 15 15 15 17 19 22 24 24 24 19 18 22 21 21 22 21 22 21 19 19 18 18 18 18 19 19 17 13 11 9 10 10 9 9 9 8 9 9 9 9 10 11 11 11 11 10 10 11 15 23 31 34 31 24 24 34 46 56 55 55 57 53 55 56 43 29
34 26 17 12 12 12 11 16 20 18 23 32 35 37 29 19 20 22 19 16 15 15 14 14 15 18 20 22 22 22 23 20 21 23 20 21 21 20 21 20 19 18 18 18 19 18 17 17 14 11 10 9 9 9 9 10 9 9 9 10 10 10 10 11 11 11 12 10 10 13 19 25 27 35 42 40 45 55 60 60 57 56 54 49 50 50 38 28
40 35 27 17 12 11 13 19 22 20 25 34 36 39 37 22 17 21 19 16 15 14 13 14 16 19 21 22 22 20 19 19 22 22 20 21 20 20 20 19 19 18 19 19 17 16 15 14 12 11 9 9 10 9 10 10 10 10 9 11 11 12 12 12 12 12 12 10 12 17 22 22 22 35 49 55 63 65 63 59 55 53 52 50 47 46 40 32
44 39 34 25 14 10 14 21 25 26 30 36 35 36 39 23 12 17 17 15 16 14 13 16 18 20 22 22 21 18 17 20 20 20 21 21 19 19 20 19 18 19 19 18 17 16 15 14 13 12 9 9 10 10 11 11 11 11 10 12 12 14 14 12 13 13 12 13 16 20 22 24 29 41 50 59 65 62 58 56 53 51 50 50 50 52 49 43
49 46 39 30 19 11 14 23 28 31 33 35 33 33 32 17 10 14 14 14 15 14 16 17 18 21 22 21 20 16 19 22 19 19 21 19 19 19 20 20 19 20 19 18 17 16 15 14 15 14 10 10 11 11 12 12 12 13 13 13 14 15 14 13 14 14 16 16 18 23 28 35 42 45 51 61 62 57 54 52 51 49 46 48 49 53 54 48
52 51 45 35 24 13 14 25 30 33 35 34 33 30 21 12 12 13 13 15 15 16 17 16 18 22 21 22 20 16 21 24 18 20 20 18 19 19 20 19 19 20 18 17 17 16 17 16 16 16 12 11 12 12 13 14 15 15 14 15 15 15 15 15 15 17 20 21 21 24 31 38 41 37 45 60 59 52 51 49 48 45 44 47 48 51 54 53
51 52 50 39 27 15 14 26 32 34 35 32 32 27 16 13 14 14 13 14 15 16 16 17 21 22 21 22 19 16 24 25 18 19 19 17 19 20 20 18 18 20 18 17 17 18 18 17 17 16 14 12 13 13 14 16 16 16 15 15 15 15 17 16 14 18 19 22 23 23 28 32 31 31 43 58 54 47 46 45 44 42 43 46 47 48 51 57
51 50 50 43 30 16 14 27 33 34 34 31 31 26 16 14 14 13 13 13 14 15 17 21 23 22 21 20 18 20 25 25 19 17 18 17 19 19 18 18 18 19 18 17 17 18 18 18 17 15 14 14 13 14 17 19 17 16 15 14 15 15 18 18 15 17 16 21 24 22 25 25 28 39 50 55 49 44 42 41 42 41 43 44 45 48 52 58
50 49 48 43 33 18 13 27 34 34 35 33 32 28 19 16 16 15 14 13 15 17 19 23 22 22 24 22 20 22 23 21 19 18 18 18 18 17 16 17 18 17 18 18 17 18 17 18 17 15 15 14 14 17 20 20 18 16 14 13 15 15 19 20 17 17 16 22 25 21 25 29 38 49 52 50 45 41 38 37 40 41 43 43 43 47 54 58
46 45 45 40 33 21 12 25 34 32 35 33 32 30 23 21 21 20 19 17 18 19 21 22 21 22 24 22 21 22 20 19 20 19 18 18 18 17 16 16 17 17 17 17 17 17 16 18 17 16 16 15 16 19 19 18 16 14 14 14 14 16 21 22 19 18 17 21 23 19 24 34 44 49 48 46 42 37 35 36 39 40 43 46 46 47 51 56
39 39 41 36 31 23 12 23 34 31 34 33 31 32 27 26 26 24 24 22 21 21 22 22 20 23 22 19 21 20 19 20 20 19 18 18 19 17 17 18 16 16 16 17 17 17 17 17 16 14 16 17 16 17 15 15 15 14 17 18 15 16 21 22 20 20 19 18 19 18 23 32 41 45 47 45 39 36 37 38 40 41 45 47 48 47 49 55
28 31 34 29 29 24 11 20 33 31 34 32 30 33 31 30 29 27 26 24 22 21 23 23 20 23 20 17 20 20 20 21 19 18 17 18 19 17 17 18 17 17 17 17 17 17 18 17 17 17 16 17 14 13 14 16 17 15 16 18 18 17 19 21 21 20 20 18 17 19 23 32 39 44 46 43 39 37 37 39 41 42 46 48 48 47 48 53
19 23 25 24 29 25 9 19 32 30 33 31 28 33 33 32 30 28 28 25 23 20 23 23 20 22 20 17 19 19 21 21 18 18 17 17 18 17 18 17 17 18 17 17 17 17 17 17 18 18 15 15 13 13 17 19 18 18 17 17 18 18 17 20 22 20 19 19 18 19 21 29 37 42 45 42 39 38 38 40 43 44 49 50 48 48 49 52
15 16 18 24 31 22 8 20 32 29 33 31 26 31 31 30 29 28 27 24 22 21 22 22 21 23 20 18 20 21 22 20 17 18 17 17 17 17 18 17 17 17 16 16 17 16 16 15 14 14 14 15 14 14 18 19 17 18 19 18 19 19 18 19 22 22 20 18 19 20 21 27 35 41 42 40 39 39 39 42 45 49 53 52 50 49 50 53
14 13 18 29 30 18 9 21 33 31 33 31 26 29 30 28 28 28 28 25 25 25 25 24 24 25 21 20 22 22 21 18 16 18 18 18 18 18 18 18 17 17 15 14 15 15 14 14 15 15 16 16 16 14 16 17 17 17 17 18 18 18 19 19 21 22 21 19 19 20 21 27 37 41 39 40 40 40 43 44 45 49 51 52 53 53 53 54
13 12 21 31 26 15 9 21 34 33 33 32 27 30 33 33 29 27 30 29 28 29 28 27 26 24 21 21 23 23 21 18 17 18 18 18 19 19 18 18 17 15 14 14 15 15 15 16 17 17 18 17 18 18 17 17 17 17 16 17 17 17 19 19 21 23 21 21 21 22 22 26 36 40 38 40 42 44 46 45 44 46 47 49 50 53 56 57
12 13 25 30 20 12 9 21 34 34 35 33 30 33 38 39 33 31 34 31 28 28 27 27 26 23 23 23 22 21 20 18 17 18 19 19 19 17 17 17 15 13 15 15 15 16 17 19 20 20 19 20 20 19 18 18 17 17 16 17 17 18 19 20 23 24 23 23 24 25 24 27 35 39 39 41 42 45 47 45 44 44 46 48 50 54 56 56
12 15 28 27 15 11 12 24 35 35 36 34 34 39 39 40 37 35 40 34 26 26 25 26 25 23 23 22 20 19 18 17 17 19 20 20 18 16 16 15 13 14 16 17 17 18 20 22 22 22 20 20 19 18 18 18 18 17 17 18 18 18 20 22 25 25 24 25 26 26 26 31 37 39 40 42 42 44 46 46 46 47 48 49 53 59 60 60
13 19 29 23 11 11 17 28 36 35 36 35 37 40 34 37 39 36 42 37 25 25 25 24 24 23 22 21 20 18 18 17 16 19 20 19 17 16 16 15 15 15 15 16 18 20 22 23 23 23 21 19 18 18 18 17 17 17 18 19 19 19 20 22 26 27 24 25 27 25 28 35 40 42 43 42 42 46 50 51 50 48 47 48 53 60 62 64
15 23 29 19 9 16 23 30 34 32 33 33 35 36 29 35 43 40 44 38 25 24 24 23 23 22 22 21 20 18 17 18 18 19 21 20 17 17 17 17 17 17 17 18 18 20 23 24 23 23 20 18 17 18 18 18 17 17 18 19 18 19 20 21 25 27 25 26 27 26 33 37 38 42 44 43 45 50 54 54 54 51 48 51 56 60 62 64
18 27 27 15 11 21 26 30 33 32 34 35 35 33 27 33 45 46 46 37 26 23 23 22 22 22 23 21 19 19 17 19 21 21 22 21 19 18 17 18 19 18 19 21 18 20 23 24 23 21 18 16 17 18 18 20 19 17 19 20 20 20 20 21 24 25 26 29 29 29 37 38 34 37 40 42 48 53 54 52 52 54 53 55 57 60 61 61
22 29 22 14 17 23 27 33 35 35 38 38 35 30 25 31 45 52 45 34 27 26 23 22 23 22 22 22 20 19 18 20 21 22 22 21 19 19 17 18 19 19 21 21 19 21 22 22 21 18 18 18 18 19 20 20 20 20 21 21 21 21 20 21 23 25 27 30 32 31 33 33 33 35 36 41 47 52 56 54 55 58 55 54 55 56 58 60
26 28 19 18 24 25 29 34 36 38 40 39 32 27 26 30 46 55 43 33 33 30 24 23 24 24 23 22 20 20 21 22 21 22 22 20 20 20 18 18 19 21 23 23 24 25 21 19 20 18 18 19 19 22 22 20 20 21 22 22 22 21 22 21 22 25 24 28 34 32 31 33 33 34 34 40 46 51 58 57 58 61 56 53 56 55 55 61
27 25 18 23 30 30 33 34 38 42 40 37 30 27 28 32 49 55 40 40 43 30 26 27 24 24 24 22 20 19 20 21 22 23 22 21 21 19 19 19 19 21 24 23 25 27 22 20 21 20 20 19 21 25 23 22 22 21 23 24 23 22 22 21 20 21 22 29 32 28 34 40 34 35 38 39 42 47 55 54 53 56 54 53 56 56 55 59
26 23 21 29 34 35 35 32 37 42 37 33 31 32 33 39 52 46 31 43 45 27 28 32 26 25 23 20 20 19 19 20 22 23 21 21 21 19 20 22 20 20 22 21 22 23 23 24 23 21 22 21 22 25 24 24 23 23 25 25 25 24 22 22 21 20 24 33 31 28 40 43 32 35 42 42 41 40 43 45 46 49 49 51 55 55 55 56
25 21 25 35 37 37 40 37 32 34 33 31 35 40 44 50 50 36 32 46 42 28 29 30 26 26 23 20 20 19 19 20 21 21 21 21 21 20 21 24 21 19 20 20 22 22 23 27 26 23 25 23 23 24 25 26 24 26 28 24 24 25 23 24 23 23 28 32 33 37 47 47 37 36 40 45 47 41 39 41 42 45 47 51 55 53 53 51
23 22 33 42 39 35 42 44 31 28 32 31 36 46 51 48 36 32 39 42 35 31 30 29 27 23 21 21 21 19 18 19 20 19 19 21 21 20 22 24 22 20 23 23 24 24 23 26 25 24 27 25 22 24 24 24 24 26 25 22 25 26 26 27 27 31 33 33 38 42 45 48 44 40 41 46 48 42 42 43 41 45 49 52 53 50 48 46
21 28 42 46 41 31 31 35 28 28 33 28 36 50 48 37 30 37 40 33 35 38 32 30 28 22 21 22 22 21 19 20 21 19 20 21 21 23 25 25 24 26 28 25 26 26 24 24 22 23 28 26 22 23 22 21 22 21 19 21 26 25 26 28 28 31 32 34 41 42 45 48 43 40 42 44 43 39 42 43 41 45 50 53 55 51 47 45
25 37 46 44 40 29 24 28 30 35 34 27 39 49 37 30 36 42 36 30 38 39 31 30 26 22 25 25 24 23 21 22 22 22 22 22 22 24 26 26 26 28 29 26 27 27 26 25 23 23 27 26 23 23 23 22 21 19 19 23 27 26 29 31 28 27 29 35 40 42 46 45 39 42 43 39 39 41 44 44 42 46 52 54 53 50 46 45
33 43 46 42 36 29 27 31 36 39 34 31 41 39 29 32 41 40 34 31 34 32 29 28 24 23 26 28 29 27 25 25 23 23 24 23 25 26 26 26 25 24 26 26 28 27 28 30 27 27 28 26 24 24 26 25 22 21 21 22 25 27 31 33 30 28 29 31 37 45 47 40 42 49 43 37 41 42 42 42 44 49 52 48 45 42 41 42
38 45 44 40 34 31 32 36 38 37 36 37 36 29 29 38 38 35 34 32 31 31 29 26 24 27 29 30 32 31 31 29 23 24 25 24 27 27 26 26 23 23 25 28 30 27 29 31 28 27 26 23 24 25 26 28 26 23 19 20 26 27 28 33 39 43 40 32 32 41 41 33 39 44 38 38 41 38 38 40 44 49 48 43 40 38 37 37
40 45 41 37 33 33 35 38 38 35 36 37 30 27 35 39 34 33 36 35 34 35 32 28 27 31 32 32 33 32 32 30 25 24 26 26 27 27 26 25 24 24 24 27 31 28 28 31 28 26 25 23 24 24 24 28 30 25 19 21 26 25 26 33 43 51 50 40 34 36 33 27 32 37 38 40 40 36 36 38 40 42 43 44 42 39 36 34
38 44 42 36 32 34 38 38 35 33 35 32 31 36 38 35 32 32 34 36 37 37 34 32 32 36 37 33 33 31 28 28 26 25 28 29 29 27 25 27 27 25 26 27 28 29 29 31 29 27 27 27 28 27 26 27 27 25 22 22 25 27 29 31 35 38 37 35 34 36 33 27 30 38 42 42 42 39 35 35 38 38 40 44 42 39 35 34
33 42 46 39 32 36 37 35 33 34 33 30 37 44 37 31 34 33 33 36 37 35 31 30 33 36 35 32 33 31 27 28 27 27 29 29 31 28 24 28 30 29 31 28 26 29 30 31 30 28 26 27 28 30 31 29 26 24 22 21 24 29 29 26 28 30 30 31 32 36 36 30 30 38 43 42 43 43 37 34 34 34 36 36 34 34 35 38
29 40 44 36 32 36 34 32 34 34 30 28 36 42 35 31 34 33 35 36 34 32 30 30 33 34 32 31 32 33 31 30 28 29 31 31 33 29 23 28 32 31 30 26 24 28 29 31 31 27 26 27 27 29 31 31 29 27 24 21 22 25 24 24 27 28 30 32 31 33 33 28 28 33 36 39 40 40 39 35 32 31 31 31 30 32 35 40
31 40 40 32 31 35 32 32 35 31 30 33 37 39 36 34 33 32 36 36 32 31 30 31 32 33 33 33 32 33 33 32 29 30 31 30 31 29 25 29 32 28 26 24 25 27 29 32 31 27 27 29 31 31 31 31 32 31 29 26 25 25 26 27 27 26 28 30 30 32 29 25 29 32 32 36 36 34 35 35 32 30 29 30 33 34 36 42
32 37 37 33 32 34 32 33 36 34 33 37 40 39 39 39 34 31 34 33 31 31 30 31 32 32 33 33 33 34 34 32 30 31 30 29 30 30 28 32 32 28 26 25 26 28 30 31 31 29 27 29 35 37 36 38 38 33 30 29 27 27 28 31 31 28 29 31 32 35 34 29 31 32 32 36 34 30 31 33 32 30 29 31 34 36 40 44
30 34 34 33 31 32 32 32 38 40 35 36 41 42 45 44 36 30 32 32 29 28 29 31 33 34 34 33 34 35 34 32 31 31 31 29 29 28 31 36 35 29 26 25 26 33 36 32 31 30 29 31 36 39 38 40 41 38 34 32 30 30 30 30 32 32 31 32 34 36 35 32 33 34 34 37 37 33 32 33 33 30 30 32 33 38 44 47
34 36 36 33 30 30 30 30 35 38 36 39 42 42 45 43 34 29 31 32 30 29 30 32 35 37 37 37 37 37 37 36 32 31 31 29 27 28 34 40 37 28 26 26 27 37 42 36 33 31 30 31 34 38 40 40 40 40 37 34 34 35 35 32 32 33 32 32 33 35 34 33 37 37 35 37 39 37 36 35 34 31 31 33 34 38 45 49
42 43 42 36 30 29 31 29 30 33 37 42 40 38 42 41 37 35 32 33 35 33 32 35 37 38 38 38 39 39 40 40 35 31 32 30 30 32 35 37 34 26 26 28 30 37 39 33 33 34 33 35 39 44 47 46 43 38 37 41 44 45 45 39 34 33 33 34 37 39 34 30 35 37 34 34 34 34 35 36 34 33 33 34 35 39 44 47
46 45 45 39 32 33 37 36 34 33 37 41 39 38 39 38 40 43 38 36 38 35 35 36 36 37 39 40 41 40 41 42 39 34 33 32 30 30 32 34 31 26 30 34 33 33 34 32 33 35 34 37 41 43 43 44 42 35 39 49 52 52 51 42 35 34 36 39 41 38 33 27 28 31 31 32 32 31 33 34 34 34 34 35 36 41 44 44
44 40 40 39 38 38 41 46 42 35 36 39 39 40 39 37 40 44 43 41 39 37 37 35 35 37 40 41 42 41 39 40 40 36 34 34 30 28 31 33 30 33 39 39 33 31 33 34 34 34 35 36 38 39 37 40 43 42 47 53 52 55 53 41 36 38 39 41 38 33 35 35 30 28 29 31 32 32 32 33 34 34 35 36 37 42 45 44
40 40 40 40 42 39 39 43 41 38 42 44 44 46 44 39 38 41 43 44 41 39 37 36 36 39 42 44 44 44 40 38 39 38 36 34 30 29 32 31 33 44 46 36 32 35 34 36 38 40 39 37 36 38 38 42 48 51 59 64 61 60 55 45 43 45 43 41 40 39 45 45 35 28 29 32 32 32 32 32 33 34 34 36 39 44 46 44
41 51 51 44 43 41 39 43 43 42 46 47 48 53 48 40 40 43 43 41 40 39 37 37 39 39 42 47 45 44 44 41 40 40 37 34 33 33 34 30 34 50 50 35 33 37 36 37 40 42 41 39 37 38 39 42 46 47 56 69 74 71 66 58 50 47 44 42 44 48 52 49 39 30 28 30 31 32 32 32 34 36 37 38 40 42 43 41
50 55 53 48 49 50 52 56 52 44 44 45 47 51 48 41 42 48 48 43 41 39 37 41 43 39 41 47 45 45 48 47 46 45 40 39 39 39 39 35 34 42 43 37 36 38 38 39 42 43 42 39 38 40 43 45 46 45 46 55 70 78 76 70 62 58 59 58 52 52 54 49 39 31 28 30 32 34 35 36 38 37 37 38 39 39 39 37
56 55 52 51 52 55 59 58 51 43 43 46 45 47 50 46 45 51 53 50 46 42 40 43 43 39 41 44 43 44 47 48 48 47 45 45 44 42 42 39 34 34 35 37 42 44 42 43 46 46 43 39 38 42 47 46 46 53 55 59 75 85 80 79 79 72 66 65 60 56 55 47 34 28 31 36 39 38 37 36 37 36 36 38 39 38 37 37
50 50 49 47 46 52 56 51 45 38 35 39 42 46 51 49 51 56 55 54 53 49 46 46 43 42 43 43 42 45 51 51 48 45 43 45 45 43 43 40 35 36 37 38 43 45 43 44 45 46 46 42 39 42 45 42 44 58 67 72 83 85 73 69 73 66 59 65 69 60 47 37 30 29 34 39 40 38 34 34 35 36 38 40 39 37 36 37
47 47 44 41 43 50 49 43 39 34 34 43 50 52 52 51 56 59 53 52 56 54 53 54 51 44 41 43 48 53 58 58 53 48 45 44 42 41 42 41 38 39 42 42 43 42 40 41 42 44 48 44 38 41 43 40 44 53 55 56 66 75 73 67 67 66 63 60 56 44 32 31 33 32 33 36 37 35 33 35 36 36 38 40 40 39 37 38
Wind_Speed
20 20 21 21 21 20 19 19 18 18 18 17 15 13 10 8 5 5 3 3 2 3 3 4 4 5 6 7 10 9 8 9 9 8 8 8 8 7 7 8 8 7 7 8 6 6 6 5 5 4 5 5 4 5 4 2 1 5 5 4 4 5 6 5 5 5 8 9 9 7 5 8 9 8 8 7 10 11 12 13 14 15 15 15 14 13 14 13
21 21 21 21 21 20 20 19 18 19 19 17 15 13 10 7 5 4 3 2 2 2 2 3 3 5 6 7 10 8 10 10 9 9 8 7 6 7 8 8 8 7 7 5 3 4 5 7 6 5 6 6 5 4 4 3 2 3 3 4 4 6 7 7 8 7 7 9 9 8 7 8 8 7 5 5 9 9 11 11 12 15 15 14 14 14 14 13
21 21 21 21 22 21 20 19 19 19 18 17 16 13 10 7 4 3 3 2 2 2 2 3 3 5 5 7 8 8 10 9 8 8 7 6 7 8 9 9 8 7 7 5 5 5 5 6 5 5 6 7 5 4 6 4 2 2 2 4 7 9 9 9 9 8 7 8 9 9 8 9 7 5 6 8 10 9 9 9 9 13 13 13 14 14 14 13
21 21 21 22 22 22 21 20 19 19 17 16 17 15 11 7 4 3 2 1 1 1 2 2 4 5 6 7 5 8 9 8 7 6 5 6 7 8 9 10 9 9 8 6 6 6 6 6 5 5 5 7 7 5 7 3 1 2 1 5 9 8 10 9 9 9 6 6 8 9 8 9 8 6 8 9 9 7 8 8 9 12 13 13 14 15 14 14
21 21 21 21 22 23 22 20 19 17 15 16 18 17 13 7 4 3 2 1 1 1 2 3 4 5 6 6 4 6 6 6 6 4 6 8 7 9 10 11 10 11 11 9 7 7 6 5 5 5 5 8 8 6 6 5 2 3 4 9 8 5 8 9 9 8 5 5 7 9 8 9 10 7 5 5 4 7 9 10 12 13 13 14 14 14 15 16
21 22 22 22 22 23 23 20 18 16 14 16 17 17 16 10 4 3 2 1 2 2 2 3 4 5 7 6 7 4 3 2 5 5 8 8 8 9 10 11 11 11 12 10 8 6 6 5 6 6 7 7 7 6 7 5 2 2 7 8 6 5 7 8 8 7 4 5 6 7 9 10 11 9 9 9 11 12 11 11 13 14 13 13 14 15 17 18
22 22 22 22 22 23 23 20 17 15 15 18 18 17 16 12 6 3 2 2 3 3 3 3 4 6 6 7 8 6 5 7 5 7 10 8 8 9 10 11 11 12 11 7 6 5 5 4 5 6 7 6 6 7 8 6 2 3 8 8 6 5 6 7 6 6 4 6 7 8 10 10 11 9 11 15 15 13 13 13 13 14 13 13 15 17 18 20
21 22 22 23 23 23 22 18 15 14 15 18 18 17 15 12 7 3 2 3 4 4 4 4 5 7 6 7 5 5 9 8 5 10 10 8 8 8 9 10 10 11 9 8 7 5 4 5 5 3 5 7 7 9 9 7 4 5 8 7 6 5 6 7 6 7 7 8 9 10 10 8 10 11 12 14 13 13 13 13 13 13 13 14 16 17 18 20
20 21 22 22 23 22 21 17 14 14 15 17 18 17 14 10 7 4 3 4 4 5 5 5 7 7 6 5 3 4 9 6 5 11 9 7 8 7 8 7 8 9 8 9 8 4 4 5 4 1 4 9 7 9 8 6 4 6 7 7 7 7 7 7 7 8 8 9 10 11 10 11 14 14 12 12 12 13 13 13 13 13 14 14 15 16 17 19
19 21 21 22 22 22 20 15 13 14 15 16 18 17 13 9 7 5 5 5 5 6 5 6 7 7 5 2 3 3 7 5 6 9 8 6 7 7 7 5 7 7 6 8 7 7 7 5 5 3 6 8 6 7 4 2 6 8 7 7 6 8 8 7 7 8 8 8 9 10 11 13 13 7 7 11 11 13 13 13 13 13 14 14 15 15 16 18
19 20 21 21 21 21 19 14 12 15 15 16 16 15 12 10 8 7 6 6 6 5 5 6 7 8 6 1 2 6 6 5 6 7 6 5 5 4 4 5 7 6 5 6 6 7 7 6 4 1 3 7 7 7 4 4 8 8 7 8 7 8 9 7 7 9 8 6 7 10 11 12 8 4 9 14 12 12 13 14 13 13 14 14 15 15 15 17
19 20 21 21 20 20 18 13 12 14 15 15 15 13 11 11 10 9 8 6 6 5 6 7 8 8 8 6 9 8 6 6 7 6 4 3 3 3 3 5 6 5 4 4 4 5 6 5 1 1 3 7 7 6 6 5 6 7 6 6 7 8 8 7 7 8 7 5 8 11 10 9 6 7 14 15 13 13 13 14 14 13 14 14 14 14 15 16
19 20 20 21 20 19 17 13 11 13 14 15 13 11 9 10 10 10 8 7 6 6 6 8 8 8 7 8 10 7 7 7 7 5 4 3 3 3 4 5 5 6 5 3 3 4 5 4 2 2 5 4 4 6 7 7 7 8 5 3 5 7 6 6 6 7 7 7 10 10 6 5 8 11 15 15 14 14 13 13 13 13 14 13 14 14 15 15
19 19 19 20 19 18 16 12 11 13 13 14 12 8 6 7 9 9 8 7 6 6 6 7 9 9 8 9 8 7 8 6 6 4 4 3 2 3 4 4 5 5 4 3 2 2 3 4 2 5 4 1 6 8 8 8 6 6 4 3 3 4 5 8 6 7 7 9 10 10 5 4 9 13 14 14 15 14 13 13 13 13 13 13 13 13 14 15
18 18 17 18 17 16 15 11 10 12 13 13 11 6 3 3 6 7 7 7 6 6 6 7 8 6 7 10 7 6 7 5 5 3 4 3 2 3 3 2 4 4 4 3 1 1 3 3 3 6 5 4 8 8 6 6 4 4 4 4 2 2 4 8 6 5 5 8 11 10 5 4 9 13 15 15 14 14 13 13 13 13 13 13 13 12 13 14
16 16 16 16 16 15 14 10 9 12 12 14 12 5 2 4 5 5 6 7 5 6 5 6 7 2 3 9 6 5 6 4 3 2 3 3 2 3 2 1 3 3 3 2 2 2 2 3 3 4 5 6 7 6 5 5 4 4 5 3 2 3 2 6 7 4 2 6 9 8 5 3 9 14 15 15 14 14 13 13 13 13 13 12 12 11 12 13
15 15 14 14 13 14 13 9 8 11 11 15 13 6 3 4 5 5 6 6 5 5 4 5 5 3 4 7 5 5 5 3 2 2 2 2 2 3 2 2 2 2 2 3 3 5 4 5 5 5 5 5 4 4 4 4 4 4 4 2 1 3 2 2 5 4 2 5 7 7 6 4 9 15 16 15 15 14 13 13 13 12 11 11 11 11 11 11
14 14 13 11 12 13 12 8 7 10 11 15 14 7 4 3 3 6 7 5 4 2 2 4 1 3 7 6 4 5 5 2 3 3 2 2 2 2 1 1 3 4 6 6 6 6 6 6 6 5 5 4 4 5 5 2 2 2 3 3 2 3 4 2 2 2 2 6 6 6 7 4 10 15 16 15 14 13 13 13 12 12 11 10 10 10 10 10
14 13 12 10 11 12 11 7 7 9 11 15 13 7 6 4 2 5 8 6 3 1 2 5 4 1 5 6 6 5 3 3 4 3 3 2 2 0 1 1 3 6 7 6 6 7 6 6 6 4 5 4 3 2 2 4 3 3 3 4 4 3 3 1 2 2 3 6 4 4 5 5 10 14 15 16 14 12 12 12 12 12 11 10 10 10 10 8
14 13 11 9 10 12 10 6 6 9 11 15 14 7 7 5 2 4 7 6 5 5 4 5 5 4 4 5 6 5 4 4 4 4 3 3 3 1 1 1 5 7 5 2 5 6 6 5 4 2 2 3 3 3 4 4 2 4 3 4 4 5 3 1 2 2 2 5 2 2 4 5 10 12 14 15 14 12 12 12 12 12 11 10 9 9 9 7
13 12 10 9 10 11 9 4 4 8 10 14 14 9 8 8 2 2 3 4 8 8 5 4 5 5 5 5 6 6 5 5 7 4 4 5 4 4 1 1 6 5 2 0 3 5 6 4 3 4 5 5 4 2 2 1 1 3 4 5 4 4 2 2 2 2 3 5 2 3 5 5 8 11 13 15 13 13 14 14 13 12 11 10 9 9 8 6
12 10 9 9 10 10 7 3 4 7 9 12 13 10 9 8 5 3 2 2 8 9 7 7 6 6 6 6 8 6 3 6 8 7 7 6 5 3 2 2 2 2 4 4 4 5 5 1 6 6 5 4 3 2 1 0 2 3 4 5 4 3 1 2 4 4 3 5 2 4 5 4 7 9 11 14 13 12 14 14 13 13 12 10 10 9 7 6
10 9 9 9 9 9 5 2 4 6 7 9 11 10 9 8 6 4 1 0 5 9 7 7 6 6 6 6 7 6 3 4 6 9 9 7 5 5 4 3 2 2 4 4 3 4 3 4 7 4 2 3 4 3 1 2 3 3 3 5 4 2 4 3 4 4 4 3 3 5 5 3 6 7 9 12 13 12 13 13 13 12 11 11 10 9 8 7
10 9 9 9 9 7 4 3 4 4 5 7 9 9 9 8 6 5 2 1 4 7 6 7 8 8 7 5 5 5 6 6 6 7 9 9 5 3 4 5 2 1 2 2 3 2 7 7 4 1 2 2 3 3 1 4 3 2 2 6 6 4 5 4 1 3 4 3 4 5 5 4 7 8 8 10 11 11 13 14 13 12 10 10 10 9 8 7
9 10 10 9 8 5 4 5 5 4 5 7 8 9 7 6 6 3 0 2 4 5 3 5 5 7 8 4 5 4 4 7 8 6 7 8 7 3 2 3 4 1 4 1 2 4 8 6 1 2 3 2 2 1 2 5 5 2 1 3 7 6 6 5 3 4 5 4 4 5 5 4 7 9 8 9 10 11 13 15 13 12 11 11 10 9 8 7
9 10 10 9 7 4 4 6 6 6 6 6 8 8 6 5 4 2 1 3 4 4 2 3 2 4 6 4 4 1 4 5 7 6 6 6 6 4 0 1 3 3 3 1 1 3 5 4 1 2 3 2 2 1 4 4 7 2 3 2 5 6 6 6 6 6 5 2 4 5 6 3 5 8 9 9 11 12 13 12 10 10 12 12 11 10 8 7
9 10 10 9 8 6 5 4 5 7 5 5 8 7 5 4 3 2 2 3 5 4 4 4 3 4 6 3 3 3 2 5 4 6 8 5 4 4 3 3 1 3 2 2 1 2 4 5 3 1 2 3 2 2 4 4 7 3 5 3 5 6 7 7 6 7 5 2 3 7 6 6 4 5 8 9 10 11 10 9 9 13 14 13 11 10 9 7
9 10 9 7 7 7 6 4 6 6 5 6 7 6 3 3 2 1 4 1 4 3 3 4 3 5 5 2 2 2 4 3 2 4 7 5 4 3 4 6 3 3 1 5 1 4 3 3 2 0 4 3 2 5 5 5 5 4 5 3 4 5 7 6 6 7 4 3 5 6 4 7 5 3 7 7 10 12 12 11 12 15 15 13 12 11 9 8
9 9 7 6 6 6 5 5 6 5 6 6 5 4 3 2 1 3 4 2 3 1 3 4 3 4 3 0 3 4 4 3 3 4 4 4 5 4 4 6 2 3 3 6 1 6 4 4 4 3 3 2 6 5 3 4 4 4 2 4 3 4 5 5 6 6 3 5 7 2 2 6 5 2 5 6 9 10 10 10 13 15 15 14 13 11 10 8
8 7 6 5 6 6 6 6 6 6 6 5 3 2 1 1 2 4 1 3 1 1 2 3 4 4 3 1 4 5 4 5 4 3 3 4 5 5 6 5 1 2 4 1 3 7 6 3 2 3 4 3 3 2 2 3 3 1 4 5 4 4 3 3 4 3 5 6 4 2 3 4 5 1 2 3 3 5 5 6 8 12 13 12 12 12 10 8
7 5 5 5 6 6 7 6 7 7 6 4 2 1 1 2 3 2 3 2 1 3 2 3 4 3 2 1 3 4 4 5 3 1 2 3 3 3 3 3 2 1 3 4 4 6 6 4 3 4 4 2 2 3 3 3 4 4 4 4 4 4 2 4 3 3 6 4 2 3 2 5 6 2 0 2 1 3 4 4 5 9 11 12 12 10 9 7
5 4 3 5 6 7 7 6 6 7 5 3 0 1 3 2 0 2 4 2 2 4 3 3 4 3 3 3 5 4 1 4 4 3 3 1 2 3 2 3 3 2 1 1 2 4 5 4 4 4 3 3 4 5 5 6 5 4 4 3 4 4 2 4 3 3 5 1 4 2 1 4 5 1 1 1 3 5 5 5 5 8 11 12 10 7 6 5
3 2 3 5 7 8 8 7 7 6 4 2 1 4 5 1 3 3 2 1 1 3 2 3 3 2 1 0 4 5 2 2 3 2 2 1 0 4 4 5 5 4 3 2 1 2 3 5 5 5 3 3 5 5 2 1 2 4 4 4 4 4 3 4 4 3 3 1 3 1 2 4 3 1 2 1 2 4 5 6 6 8 11 11 10 7 6 6
1 1 4 6 8 8 8 8 7 6 4 0 3 4 2 2 3 1 1 4 3 1 1 3 1 3 3 3 4 5 2 3 3 1 1 2 1 2 4 5 4 4 3 2 1 2 3 2 2 1 1 3 4 4 5 5 4 3 3 5 5 3 4 5 4 4 4 2 1 2 2 4 2 1 2 2 3 3 5 6 7 9 10 10 9 7 6 6
2 1 4 6 8 8 8 8 7 7 3 2 4 2 2 3 3 1 2 4 2 1 1 1 2 2 4 4 4 4 2 2 2 2 2 2 2 2 2 4 5 5 4 3 2 2 6 1 5 5 3 3 4 4 5 6 3 1 2 5 3 3 3 4 3 4 5 5 1 2 2 3 1 2 3 3 4 5 5 7 9 10 10 9 8 7 7 7
2 1 4 7 9 9 8 8 8 6 1 4 3 2 3 3 3 2 3 3 3 3 1 2 1 1 2 2 2 3 1 1 2 2 1 1 1 2 3 4 5 5 5 4 2 2 5 1 7 5 4 5 5 5 4 5 3 1 3 2 3 3 5 4 1 1 3 5 2 0 3 3 1 4 6 5 5 6 6 8 10 11 11 9 8 7 7 6
3 1 3 7 9 8 7 7 7 4 0 4 1 4 2 3 4 3 3 3 3 3 4 1 1 2 1 0 2 4 2 1 2 3 1 1 1 2 2 3 3 5 5 4 2 1 4 1 6 3 2 6 3 2 4 4 5 4 3 4 2 2 3 3 3 1 3 4 1 1 5 5 2 1 5 7 6 7 7 8 10 11 11 10 9 8 7 5
4 2 3 6 8 7 6 6 5 3 1 1 4 4 1 3 4 4 4 3 2 3 4 1 2 2 2 2 2 5 5 4 2 3 2 0 1 2 1 2 3 4 4 4 3 2 3 3 5 4 2 5 3 3 3 4 3 3 2 2 2 3 1 1 2 3 4 4 1 0 4 4 2 1 3 6 7 7 8 9 9 10 11 10 9 9 8 6
4 2 1 5 7 6 6 6 4 1 2 2 5 3 1 3 5 4 3 2 2 3 2 3 2 1 2 3 2 3 5 5 4 3 2 2 1 2 1 2 2 3 2 4 3 2 1 3 2 5 2 2 4 5 3 3 4 2 3 2 1 3 3 2 2 3 4 5 3 2 3 1 3 3 2 3 6 8 8 8 8 9 10 9 8 7 6 6
2 2 0 5 7 6 6 6 3 0 1 3 3 3 2 3 4 5 3 0 1 3 2 2 1 1 1 1 2 2 3 3 3 2 1 2 0 3 2 2 2 2 1 2 1 1 1 2 1 4 4 3 3 1 2 2 1 1 2 0 1 0 2 2 1 1 3 5 4 3 4 2 5 4 4 2 2 6 7 7 8 9 10 8 6 6 4 4
2 1 1 4 5 4 5 5 4 2 2 4 3 4 3 2 3 5 4 1 0 2 3 2 1 2 1 1 1 2 2 2 2 2 1 1 1 1 3 2 2 1 1 3 1 1 2 2 3 1 3 3 1 5 4 4 3 4 3 3 3 2 3 4 1 1 1 4 4 4 5 3 5 4 4 3 2 3 6 7 7 8 8 7 6 5 4 3
3 1 2 3 3 3 2 3 3 1 1 3 3 3 2 2 2 3 4 1 1 1 1 1 2 1 1 2 2 1 2 3 1 2 2 1 2 2 3 2 1 3 4 2 2 2 2 3 4 3 2 1 5 6 3 1 1 4 3 3 3 2 3 5 3 2 2 2 2 4 5 2 5 4 3 2 3 3 5 6 7 8 7 7 7 5 4 4
1 0 2 3 2 2 1 3 3 2 3 3 2 2 2 1 2 2 2 2 1 1 0 1 2 2 1 2 2 2 2 3 2 2 2 1 1 3 3 2 2 4 4 2 2 2 2 3 3 2 1 2 4 5 3 3 3 5 3 1 2 3 3 5 5 4 4 3 2 4 4 2 5 3 1 1 3 4 5 6 7 7 6 7 7 6 5 4
1 2 2 3 2 2 1 2 3 4 5 4 4 5 3 3 4 3 3 4 3 1 1 1 1 2 1 1 2 2 1 2 2 1 2 2 2 4 2 2 4 3 2 3 2 1 2 2 3 4 2 2 4 4 4 4 4 5 2 0 1 1 2 4 3 3 4 3 2 5 5 2 4 3 1 1 3 5 6 8 8 8 7 7 7 6 5 5
2 2 3 5 5 2 1 3 2 3 5 5 5 4 3 3 4 3 2 5 4 3 2 1 1 1 1 0 2 1 1 2 3 1 1 3 1 4 2 3 4 2 1 2 1 1 2 2 2 4 4 2 2 2 1 1 2 3 2 2 3 3 3 3 4 4 4 1 1 6 6 4 4 2 0 1 2 4 5 7 9 9 8 8 7 6 6 5
2 2 2 4 7 6 6 5 2 2 4 4 4 2 2 3 4 2 1 2 3 3 2 1 1 1 1 1 3 3 2 2 3 3 3 3 1 2 3 2 4 2 3 5 3 1 3 3 2 5 5 4 5 5 4 3 4 4 3 3 3 4 4 4 5 5 4 3 4 5 3 5 8 6 3 2 2 3 4 6 8 9 9 8 8 7 6 6
1 0 1 2 4 6 7 5 2 2 2 1 1 2 2 3 4 2 0 1 2 2 0 1 1 1 1 2 3 3 2 3 4 4 4 4 3 0 2 3 3 4 6 6 4 2 4 3 1 3 5 5 6 6 4 4 5 5 4 3 3 4 4 4 7 4 4 5 6 3 3 4 8 8 5 3 2 3 4 6 7 7 8 7 7 7 7 7
1 2 2 1 2 3 4 4 3 3 3 0 0 1 2 3 3 2 1 1 1 1 1 1 1 1 2 2 3 3 3 3 4 3 4 4 4 2 2 2 3 6 7 6 4 2 5 4 1 3 6 6 7 7 6 6 6 6 6 5 5 5 6 7 8 5 2 6 6 6 6 8 8 8 7 4 3 3 4 5 5 6 6 6 7 7 7 7
2 4 3 2 2 3 5 4 2 2 3 1 1 2 3 3 3 2 1 1 2 1 2 1 1 2 2 1 3 3 2 4 4 3 4 4 4 4 4 2 2 5 6 5 3 2 4 3 1 5 8 6 6 7 6 7 8 7 9 7 5 6 7 7 6 4 2 6 9 8 10 12 11 9 7 3 2 3 3 4 5 6 7 7 7 7 7 6
3 4 4 4 4 5 5 4 2 3 2 1 2 2 2 3 3 3 1 2 1 2 0 2 1 2 2 1 2 2 2 3 4 3 5 5 5 4 4 3 1 4 5 4 2 2 3 2 1 4 8 6 5 6 6 6 8 8 9 5 4 4 4 4 3 2 2 5 7 6 9 11 8 4 2 2 3 4 5 6 7 7 7 7 7 7 7 7
5 6 7 5 3 3 4 4 2 3 2 3 2 3 4 3 1 2 2 1 2 1 1 2 0 1 1 2 2 2 3 3 5 5 6 7 7 6 4 4 4 3 4 3 3 3 3 3 2 4 7 5 2 5 6 7 9 9 8 5 4 4 2 3 4 4 5 3 2 3 7 7 1 2 1 3 5 6 7 6 7 7 6 6 7 7 7 7
5 6 7 4 1 2 3 3 3 3 1 1 1 3 3 2 2 2 2 2 0 2 2 2 2 3 3 3 1 2 3 5 7 8 9 10 10 11 9 9 9 7 5 4 3 4 4 5 4 4 6 5 2 4 7 9 9 6 4 4 5 5 3 2 3 6 8 6 3 4 5 4 3 1 2 3 5 6 6 5 5 6 5 6 6 6 6 6
Wind_Direction
10 9 8 7 7 6 3 358 355 353 353 351 348 349 345 337 329 320 334 343 345 358 6 30 38 41 37 34 39 56 87 93 96 89 87 93 91 87 77 71 78 92 111 113 114 125 133 136 132 132 139 141 123 119 114 79 176 213 204 158 140 127 115 113 104 101 116 119 111 108 113 111 110 101 104 105 93 94 88 80 80 78 73 69 68 66 63 61
9 8 6 5 5 5 3 360 355 353 354 353 350 350 346 340 331 321 332 349 1 4 27 40 42 42 39 38 48 81 101 98 102 87 84 95 86 79 71 67 75 93 111 108 125 153 150 140 140 158 152 138 122 126 133 122 207 225 175 136 113 101 97 89 91 94 108 111 107 105 105 106 107 113 139 141 117 116 104 98 99 88 78 71 65 68 67 62
10 8 5 4 4 3 3 1 356 355 359 2 1 358 352 348 339 325 334 1 12 18 44 42 47 47 43 42 57 106 116 115 107 79 83 100 85 77 68 65 73 91 109 123 153 160 147 141 150 166 152 136 126 136 139 137 190 225 215 132 105 104 105 93 91 88 92 110 117 113 107 106 110 131 152 136 122 123 105 100 106 91 78 70 64 64 66 61
11 9 6 3 2 3 3 1 358 360 7 11 10 7 2 356 352 338 338 20 34 41 53 48 52 47 45 43 73 123 141 146 106 68 97 104 84 75 66 65 74 84 92 118 152 154 149 152 156 164 158 135 127 137 131 114 166 197 249 109 115 124 114 97 93 93 96 112 115 123 122 112 116 129 143 146 134 115 93 80 83 82 73 69 63 61 65 66
12 10 7 4 2 2 2 2 1 5 14 12 11 11 7 3 357 353 354 47 64 76 74 51 52 47 43 44 94 138 191 180 99 89 125 105 83 72 66 68 74 78 82 93 113 129 140 149 158 168 162 137 140 146 116 97 127 129 80 95 113 124 111 103 101 99 108 117 120 135 129 117 119 104 110 156 134 100 92 80 75 74 71 70 67 66 71 72
13 12 8 6 3 2 2 3 4 9 14 9 10 11 8 7 355 358 18 67 84 94 81 56 55 44 39 60 92 113 237 118 89 138 132 105 83 71 68 69 74 78 76 78 93 116 130 157 175 163 149 141 146 135 110 120 214 145 108 111 110 81 95 107 105 104 130 136 126 125 120 131 130 96 72 78 85 93 93 88 83 78 77 80 81 77 74 70
12 12 9 7 4 3 2 2 6 10 11 8 11 10 8 9 358 3 24 76 88 91 82 68 57 40 47 85 90 81 71 70 93 150 132 106 81 73 73 70 75 78 69 71 90 105 112 140 154 149 148 138 129 121 118 136 200 148 124 127 120 80 81 101 110 116 128 118 113 122 132 145 137 108 86 83 88 98 97 96 94 89 87 84 81 76 72 68
9 10 9 6 4 4 2 3 7 10 9 7 10 11 9 10 9 22 40 76 89 91 87 70 55 37 57 101 111 92 76 61 105 145 131 97 78 77 75 68 73 74 63 67 71 83 98 97 106 162 158 124 126 128 136 149 130 115 121 127 129 102 94 109 123 126 119 115 121 131 131 127 121 113 101 96 99 104 104 104 102 98 94 86 79 75 72 70
4 6 7 6 3 3 3 3 5 8 9 9 9 10 12 15 25 48 66 85 91 90 83 62 53 36 61 106 181 99 73 57 111 139 133 92 79 79 75 66 71 68 57 62 53 57 75 71 78 13 112 117 135 137 161 185 109 105 124 132 134 116 114 128 135 131 127 131 135 131 124 119 118 113 103 104 113 114 114 110 106 103 96 89 83 77 72 70
357 360 2 4 2 2 3 2 5 8 10 10 10 10 16 28 41 58 76 89 90 86 73 54 43 34 65 134 238 96 81 81 109 135 133 94 83 78 76 84 82 65 56 63 46 49 55 47 70 72 108 123 139 139 178 210 103 118 128 126 130 122 124 140 140 135 135 141 151 141 129 131 136 141 122 121 127 124 122 116 112 108 99 93 87 79 73 68
349 353 357 1 0 0 2 2 4 8 11 11 11 14 24 40 52 64 76 86 85 78 59 46 30 38 69 35 27 90 91 92 115 141 136 98 91 80 82 106 97 71 54 60 51 50 44 40 72 133 140 137 140 132 113 86 115 133 140 132 131 131 128 140 148 148 150 150 167 153 135 145 164 184 138 137 141 135 130 123 118 110 101 95 87 81 75 70
344 347 351 356 359 359 360 2 3 7 12 12 15 22 33 48 60 69 76 83 76 64 52 39 29 57 90 66 63 87 80 84 123 147 142 108 93 88 105 118 115 102 75 57 59 53 46 48 26 248 136 152 156 134 114 116 141 151 174 159 144 153 133 131 151 161 172 158 165 163 149 157 158 129 131 141 145 139 135 127 121 112 103 97 91 84 78 73
340 342 345 351 356 358 358 0 2 4 9 12 18 28 42 56 64 69 73 77 67 56 48 37 45 73 97 79 71 80 75 89 122 134 136 118 98 107 116 127 138 129 108 82 76 57 57 53 359 87 124 167 136 112 120 135 161 163 205 223 169 183 141 122 150 170 178 152 169 190 183 151 128 127 138 145 147 146 142 131 124 115 106 100 93 88 81 75
335 339 341 345 351 357 358 358 360 1 5 10 15 26 46 60 65 66 65 68 61 56 47 41 66 82 84 82 78 78 83 92 99 109 141 119 114 136 118 129 148 147 135 116 95 68 71 68 78 137 136 101 110 130 145 151 182 173 194 222 211 222 133 120 147 182 183 157 182 220 230 152 136 143 149 152 155 154 146 136 128 118 111 104 96 90 85 79
333 337 339 342 346 354 359 358 357 359 3 7 8 18 24 30 53 56 50 47 44 48 45 46 76 101 101 92 83 81 89 84 86 119 161 134 146 145 119 126 143 157 157 138 129 97 91 110 182 168 139 115 141 172 171 159 192 183 201 206 209 258 130 121 143 194 203 167 192 227 244 166 149 153 156 159 163 159 149 139 130 123 117 110 104 96 90 85
335 337 341 342 343 352 0 358 355 359 3 4 4 13 359 345 12 23 26 27 25 33 37 55 75 125 107 92 91 88 81 74 99 134 152 150 167 141 141 171 148 174 189 208 209 139 118 138 155 155 155 164 181 201 184 176 186 187 243 239 175 239 174 133 145 162 212 181 201 229 246 188 155 160 162 165 169 163 153 142 134 128 122 116 111 104 98 92
340 339 344 345 342 350 0 0 356 357 1 5 6 19 6 340 0 8 6 6 6 21 33 52 72 103 81 86 104 83 59 49 102 112 127 158 168 157 163 181 187 207 193 198 176 154 157 159 153 158 185 195 198 213 207 214 204 182 245 258 198 263 272 172 149 134 208 217 225 234 245 234 160 162 167 169 172 167 157 147 140 132 125 120 115 108 102 96
344 342 349 351 342 348 0 3 358 357 1 7 9 20 9 337 4 12 4 3 356 12 80 50 47 137 94 78 63 43 34 60 104 99 110 127 145 170 165 208 206 184 166 164 160 173 178 180 192 182 180 191 192 221 229 245 271 220 244 257 221 236 249 255 144 122 238 244 246 237 239 223 160 162 170 171 174 172 161 152 143 136 131 127 120 111 104 100
347 345 355 355 343 348 0 4 360 359 3 9 13 25 32 32 86 37 24 27 10 318 93 38 360 12 74 56 24 18 39 93 102 81 83 86 51 45 330 337 199 193 191 175 155 179 189 181 204 200 174 180 182 262 319 30 352 304 292 288 277 259 247 279 66 85 276 263 255 256 252 207 168 168 171 170 175 175 161 153 147 142 138 134 126 115 108 105
348 350 1 359 346 349 359 3 0 3 6 12 19 38 38 22 135 85 40 39 39 34 35 19 5 12 43 32 13 33 79 91 91 80 63 32 10 271 274 349 193 199 213 191 143 173 217 205 186 174 125 97 72 22 13 38 345 294 277 271 276 283 282 97 118 130 266 271 266 277 263 204 177 172 170 171 174 172 163 160 157 152 148 143 134 122 116 111
349 353 6 3 349 349 359 3 2 9 9 11 24 52 43 11 23 66 17 48 59 49 48 36 26 34 31 23 37 65 99 99 91 74 31 19 336 266 262 268 217 192 132 141 142 163 225 233 98 61 58 69 73 54 24 56 281 275 271 273 265 263 275 97 148 162 236 263 255 243 242 188 173 172 170 173 176 176 174 173 168 159 153 149 142 131 125 120
350 357 9 7 353 353 4 11 14 16 8 12 29 55 53 29 30 33 337 80 70 57 59 60 52 55 47 46 62 72 107 106 89 58 23 10 342 338 13 305 266 103 129 181 182 174 210 182 85 72 75 100 102 94 107 213 256 263 274 281 274 279 305 156 174 176 217 254 250 232 235 175 164 173 176 181 184 184 182 181 174 164 159 157 150 140 136 134
353 1 12 10 357 359 17 36 26 18 8 19 34 40 38 28 24 49 63 152 81 65 56 57 53 51 48 53 60 51 55 74 68 51 27 11 27 27 8 4 23 98 168 201 236 216 184 102 91 86 115 134 116 114 195 233 235 262 297 284 284 329 301 246 172 168 203 251 258 232 232 175 165 178 184 190 192 186 184 184 178 171 170 167 161 156 153 152
356 5 15 12 4 13 48 53 25 23 22 24 27 21 19 20 20 57 77 254 105 77 52 61 60 42 37 50 51 39 67 64 38 40 26 17 39 21 2 10 337 161 110 300 289 76 93 91 85 121 211 187 148 141 255 277 257 244 293 294 307 326 294 282 164 178 198 221 239 229 236 209 187 190 186 187 191 185 182 183 180 180 177 169 165 166 166 163
358 10 16 15 17 37 71 55 36 42 42 23 11 3 3 15 17 46 119 222 117 81 47 76 69 37 31 35 38 38 100 78 40 32 27 24 29 8 54 18 319 65 79 301 245 90 86 83 50 200 174 179 217 118 28 314 294 266 150 321 322 315 292 274 240 230 235 233 208 216 259 232 186 197 196 185 185 189 192 188 186 187 180 175 176 177 178 178
0 15 17 20 33 60 78 51 37 41 37 11 351 345 352 5 5 31 245 197 104 49 2 72 70 30 24 9 18 297 188 98 56 41 29 34 31 351 225 59 352 59 65 337 160 89 86 100 233 199 146 159 245 93 59 318 291 301 76 19 307 290 279 264 244 241 262 284 171 206 267 263 183 197 198 193 195 198 199 189 192 206 196 186 186 184 186 186
3 18 19 28 44 70 85 59 41 42 22 344 335 337 348 350 2 34 244 180 89 14 342 34 27 14 10 351 340 285 193 103 103 66 35 37 45 337 334 39 21 91 64 292 168 109 98 132 164 154 185 224 249 95 66 319 292 2 50 353 283 270 266 262 252 247 270 335 184 212 258 277 252 197 179 196 209 200 191 177 189 216 213 195 188 187 187 187
4 21 24 36 48 61 71 56 47 39 356 334 332 334 342 341 22 336 256 141 59 347 355 19 3 14 9 357 22 23 76 85 179 80 39 31 44 339 20 45 15 94 148 264 194 111 99 113 122 225 240 247 37 60 47 322 300 32 32 306 280 276 271 266 258 255 272 291 246 215 221 264 271 165 164 202 219 208 197 189 198 215 217 201 190 188 188 186
5 23 33 44 51 49 42 35 38 18 344 338 327 331 344 344 2 264 250 79 37 349 45 12 342 9 355 309 78 68 81 43 13 52 37 28 40 13 54 68 32 96 161 265 354 107 94 51 37 331 289 39 67 69 35 327 325 35 341 255 238 249 257 254 256 263 257 263 268 221 157 270 279 156 177 208 226 227 209 198 206 215 215 201 189 185 184 185
3 25 45 49 50 38 23 17 10 353 345 336 323 348 348 259 238 230 176 69 21 18 29 351 341 336 303 208 97 76 80 66 56 68 81 79 67 59 83 109 206 100 116 139 66 102 108 90 61 25 6 27 64 99 74 341 325 323 238 240 226 226 240 245 254 279 262 249 259 109 118 270 279 241 207 196 232 255 222 196 196 200 200 190 185 184 181 183
5 37 57 43 36 26 23 13 346 341 346 332 335 23 208 219 250 234 91 75 305 9 2 358 11 359 1 58 76 76 85 79 56 352 94 107 104 99 118 153 224 203 116 116 107 126 149 161 128 72 36 357 250 214 177 191 234 234 245 269 260 234 219 238 221 222 257 257 87 87 143 242 258 269 216 121 129 248 228 215 190 184 186 181 180 181 178 183
18 57 51 25 17 11 13 3 339 341 343 326 294 218 223 203 309 54 84 192 262 14 15 6 14 33 73 65 56 49 51 74 50 19 40 41 60 67 24 1 357 309 350 81 134 172 176 139 119 116 75 5 285 253 201 186 213 252 271 287 276 261 241 255 248 232 261 299 76 42 294 250 261 303 61 159 203 212 217 232 212 187 181 170 165 169 175 188
50 66 25 9 4 1 357 349 349 347 341 341 189 227 249 243 73 50 53 120 17 26 11 352 15 52 82 109 55 32 359 53 40 40 49 307 75 82 60 31 356 320 350 1 244 214 170 139 154 170 126 22 319 303 280 221 299 321 322 314 298 297 298 277 267 273 289 53 88 18 292 265 260 88 51 343 202 191 199 217 210 181 171 164 163 176 189 200
101 39 6 0 356 356 348 343 351 348 349 75 209 230 267 62 86 83 36 67 63 52 1 335 357 102 74 66 45 16 12 65 28 313 272 264 243 98 95 72 14 335 339 308 300 330 287 176 124 65 59 26 3 5 354 326 309 344 342 302 296 317 314 297 293 308 317 333 115 159 252 297 326 89 69 62 123 159 185 190 178 166 165 166 171 183 200 213
160 351 352 352 351 352 345 342 347 350 6 200 230 243 70 84 106 145 54 56 45 62 61 304 252 160 98 86 60 23 352 48 40 301 295 318 338 18 57 63 33 357 325 317 33 334 289 276 76 53 46 38 42 53 3 312 278 22 304 276 301 351 318 296 318 345 327 304 269 176 247 323 359 160 139 120 142 153 168 174 170 168 167 171 181 193 212 223
188 320 343 348 347 346 346 343 347 6 31 225 236 68 68 56 49 44 33 4 336 348 293 216 239 297 106 101 79 68 21 347 9 306 295 33 18 57 54 50 35 2 342 338 355 303 291 97 104 100 94 71 44 55 32 337 322 296 277 308 21 352 303 282 277 107 264 274 287 314 293 296 185 166 154 160 169 159 166 176 175 174 174 186 204 211 218 226
205 259 338 341 342 344 349 345 352 29 175 249 25 71 71 48 32 23 18 336 317 314 282 232 56 344 2 34 48 51 5 259 1 329 307 98 92 105 83 77 48 2 359 335 318 5 310 299 128 151 135 100 63 48 79 30 339 310 321 22 28 257 262 271 276 246 249 271 293 2 305 300 294 165 160 180 191 178 180 184 184 186 190 203 214 212 217 229
214 243 312 324 335 350 356 356 14 61 204 230 92 87 66 68 44 12 7 336 291 259 276 353 45 337 335 344 40 38 349 323 359 349 332 335 92 101 32 72 71 17 2 301 297 85 296 282 140 171 202 126 156 233 149 108 29 353 32 39 291 268 260 225 272 305 297 298 313 327 300 294 307 35 175 195 197 190 190 193 197 199 200 207 209 203 211 221
214 231 281 319 333 355 4 17 44 122 200 128 111 109 64 76 66 24 4 333 287 271 297 34 47 290 347 350 13 38 357 344 353 346 340 351 73 126 358 20 64 55 38 303 317 75 276 294 136 154 168 162 201 235 236 147 123 143 166 162 304 324 328 324 316 319 307 302 317 323 295 307 59 23 329 215 195 194 198 202 205 204 202 207 208 206 210 213
203 225 283 326 329 355 16 37 59 129 141 91 87 108 100 79 71 47 29 356 304 315 347 51 39 304 45 12 351 19 6 351 349 338 1 12 126 146 108 21 16 66 81 257 300 81 231 290 315 138 150 218 224 211 336 10 66 233 221 274 17 21 289 287 268 326 312 304 323 327 305 22 61 23 348 344 214 203 203 209 208 204 204 205 205 209 214 214
193 218 35 334 327 1 25 54 63 40 103 100 87 103 98 22 45 64 69 100 355 14 13 16 9 352 5 336 352 20 343 330 346 330 1 45 317 132 100 46 343 4 248 223 153 1 296 292 296 252 192 225 94 64 25 3 341 321 326 335 346 349 295 284 246 105 310 303 330 321 305 15 71 43 5 357 305 238 219 220 214 205 204 206 207 214 223 230
203 228 32 343 341 11 22 75 74 27 103 104 92 92 79 349 3 67 80 101 140 86 63 38 33 356 324 344 357 2 322 322 336 334 353 47 354 14 79 87 313 299 285 297 53 49 315 295 281 280 297 2 75 73 54 52 288 298 307 326 339 332 304 306 329 6 307 286 307 286 289 34 88 71 27 345 297 277 246 232 219 209 205 211 217 221 224 233
216 15 13 348 24 71 110 110 114 119 89 91 101 98 81 27 30 65 71 42 27 57 158 105 40 345 343 354 311 285 319 315 303 338 349 357 43 53 75 144 239 265 274 312 51 135 208 286 281 276 283 143 131 130 148 169 219 256 258 249 301 315 329 324 328 334 306 290 288 280 289 53 103 102 49 279 260 258 241 227 220 212 209 221 229 226 225 230
101 89 24 8 68 163 230 104 127 129 108 124 140 120 108 63 39 36 49 45 36 1 330 77 48 1 21 354 288 294 333 298 283 321 321 301 57 75 82 190 222 268 313 358 8 178 225 299 296 284 274 189 181 182 184 191 226 261 274 192 268 335 333 293 278 272 283 301 331 296 297 33 92 119 157 243 248 245 227 215 216 217 221 232 237 232 231 236
155 134 64 35 55 105 108 65 87 131 128 142 137 118 132 113 58 24 41 57 44 7 340 53 65 29 48 235 252 252 250 287 300 291 271 289 118 106 103 181 213 266 31 64 30 268 282 315 309 298 310 314 289 287 312 297 260 272 277 221 207 168 187 259 280 279 286 37 301 272 282 337 9 15 261 258 247 244 221 206 211 224 234 243 247 240 237 244
215 181 124 65 60 80 94 77 56 133 139 149 138 124 181 147 105 70 45 66 56 30 3 51 76 221 208 248 254 251 237 245 274 275 275 292 283 115 106 168 215 221 124 138 172 237 291 301 294 299 313 325 322 333 345 320 289 288 288 265 233 180 183 251 275 286 332 348 287 278 286 311 322 332 342 328 259 240 222 209 213 226 238 247 249 242 241 248
237 300 98 102 89 94 103 97 80 99 120 192 163 140 183 162 141 139 109 45 53 35 325 83 36 278 304 313 283 276 271 244 245 267 278 287 295 187 146 171 193 175 157 164 186 240 280 283 272 282 291 307 316 317 310 280 270 269 263 249 218 166 160 220 253 288 355 311 290 15 42 293 308 329 338 331 288 252 235 230 231 238 244 247 245 241 244 249
196 100 80 133 125 106 108 102 83 94 108 166 225 158 181 181 176 167 125 114 104 5 291 196 107 17 32 350 297 280 286 270 249 266 283 279 287 278 214 181 159 172 186 192 192 248 286 296 309 271 275 289 301 297 285 272 269 262 247 225 188 172 170 196 236 257 281 267 284 353 342 295 300 316 321 324 298 268 249 241 243 245 247 249 250 248 249 255
119 116 119 132 100 79 90 92 97 130 123 120 171 181 199 201 182 137 74 195 172 95 328 261 139 58 66 29 302 292 300 295 280 294 310 294 287 291 275 253 162 178 208 216 196 238 284 295 281 275 279 280 286 287 276 268 275 279 271 252 189 182 197 208 244 265 232 258 279 305 306 292 289 298 304 298 272 264 255 244 239 244 249 252 255 255 258 266
163 147 139 137 111 99 108 121 170 189 156 182 197 166 191 212 179 137 125 269 223 133 281 258 140 80 73 74 300 314 349 319 300 312 319 300 289 296 293 286 242 197 221 238 212 207 257 278 234 275 284 277 270 276 271 274 282 279 277 270 139 152 225 224 244 271 233 262 274 278 283 281 276 282 288 224 209 224 236 238 241 247 253 256 257 259 265 271
174 159 156 158 127 118 141 148 187 223 199 199 199 159 177 195 154 128 130 2 329 343 320 293 231 148 190 233 280 340 21 341 310 312 306 292 290 295 290 285 289 267 245 248 231 210 231 256 245 268 285 284 258 268 279 293 289 269 263 257 184 172 226 214 196 202 198 198 188 221 263 280 271 132 186 191 196 220 234 239 246 250 252 256 259 266 272 274
158 152 161 178 169 171 181 159 178 221 198 128 135 152 170 150 125 189 186 132 136 350 352 306 276 249 240 241 265 359 356 320 302 299 292 282 279 278 269 267 273 275 267 255 241 237 247 266 271 270 281 287 281 286 296 299 290 269 257 257 213 188 199 218 213 213 200 182 178 242 278 334 46 127 240 219 207 226 240 245 257 266 267 264 262 267 275 272